Regional Weather Roundup
Issued by NWS Goodland, KS

Home | Current Version | Previous Version | Text Only | Print | Product List | Glossary Off
Versions: 1 2 3 4 5 6 7 8 9 10 11 12 13 14 15 16 17 18 19 20 21 22 23 24 25 26 27 28 29 30 31 32 33 34 35 36 37 38 39 40 41 42 43 44 45 46 47 48 49 50

000
ASUS43 KGLD 270708
RWRGLD

GOODLAND FORECAST AREA HOURLY WEATHER ROUNDUP
NATIONAL WEATHER SERVICE GOODLAND KS
1200 AM MST FRI FEB 27 2015

...OFFICIAL OBSERVATIONS...

CITY           SKY/WX    TMP DP  RH WIND       PRES   REMARKS
GOODLAND KS    CLOUDY    13   2  61 SE14      30.31F WCI  -2
HILL CITY KS   CLOUDY    10  -2  58 E8        30.49S
IMPERIAL NEB   PTCLDY     7  -4  60 E10       30.37F WCI  -8
MCCOOK NEB     PTCLDY     9  -2  61 NE5       30.45S
AKRON CO       LGT SNOW   9   6  88 E14       30.19F VSB 3/4 WCI  -7
BURLINGTON CO  LGT SNOW  13   8  81 SE12      30.25F WCI  -1
LIMON CO       LGT SNOW   8   5  87 SE15      30.13F FOG     WCI  -9
$$

...UNOFFICIAL OBSERVATIONS...

CITY           SKY/WX    TMP DP  RH WIND       PRES   REMARKS
COLBY KS       CLOUDY    14   3  62 E12       30.38F WCI   0
GOVE KS          N/A     13  32 100 MISG        N/A
LENORA KS        N/A      6  32 100 CALM        N/A
NORTON KS      PTCLDY     5  -6  61 CALM      30.47S
SHARON SPRINGS   N/A     14  10  85 SE9         N/A
TRIBUNE KS     CLOUDY    16  14  93 E10       30.33F WCI   3
KIT CARSON CO    N/A     12   8  85 MISG        N/A
YUMA CO          N/A     10   5  80 E10         N/A  WCI  -4
$$



USA.gov is the U.S. government's official web portal to all federal, state and local government web resources and services.